| time (UTC) | temp F | wind direction | speed MPH | gust MPH | rain 1hr in | rain 24hr in | rain mn in | humidity % | barometer mb |
| 20260503002320 | 80 | 357 | 0.0 | 0.0 | 0.00 | 0.00 | 0.00 | 100 | 1009.4 |
| 20260503001820 | 80 | 357 | 0.0 | 0.0 | 0.00 | 0.00 | 0.00 | 100 | 1009.3 |
| 20260503001320 | 80 | 357 | 0.0 | 0.0 | 0.00 | 0.00 | 0.00 | 100 | 1009.0 |
| 20260503000820 | 80 | 357 | 0.0 | 2.0 | 0.00 | 0.00 | 0.00 | 100 | 1009.1 |
| 20260503000320 | 80 | 246 | 0.0 | 5.0 | 0.00 | 0.00 | 0.00 | 100 | 1009.0 |
| 20260502235820 | 80 | 23 | 0.0 | 1.0 | 0.00 | 0.00 | 0.00 | 100 | 1009.0 |
| 20260502235320 | 80 | 355 | 0.0 | 0.0 | 0.00 | 0.00 | 0.00 | 100 | 1009.0 |
| 20260502234820 | 80 | 355 | 0.0 | 2.0 | 0.00 | 0.00 | 0.00 | 100 | 1009.0 |
| 20260502234320 | 80 | 338 | 0.0 | 0.0 | 0.00 | 0.00 | 0.00 | 100 | 1008.9 |
| 20260502233820 | 80 | 338 | 0.0 | 0.0 | 0.00 | 0.00 | 0.00 | 100 | 1009.0 |
| 20260502233320 | 80 | 338 | 0.0 | 4.0 | 0.00 | 0.00 | 0.00 | 100 | 1009.3 |
| 20260502232820 | 80 | 282 | 0.0 | 2.0 | 0.00 | 0.00 | 0.00 | 100 | 1009.2 |
| 20260502232320 | 80 | 327 | 0.0 | 1.0 | 0.00 | 0.00 | 0.00 | 100 | 1008.6 |
| 20260502231820 | 80 | 274 | 0.0 | 0.0 | 0.00 | 0.00 | 0.00 | 100 | 1009.0 |
| 20260502231320 | 80 | 274 | 0.0 | 6.0 | 0.00 | 0.00 | 0.00 | 100 | 1009.0 |
| 20260502230820 | 80 | 241 | 0.0 | 5.0 | 0.00 | 0.00 | 0.00 | 100 | 1008.9 |
| 20260502230320 | 80 | 261 | 1.0 | 3.0 | 0.00 | 0.00 | 0.00 | 100 | 1009.0 |
| 20260502225820 | 80 | 319 | 0.0 | 1.0 | 0.00 | 0.00 | 0.00 | 100 | 1008.9 |
| 20260502225320 | 80 | 334 | 0.0 | 4.0 | 0.00 | 0.00 | 0.00 | 100 | 1009.0 |
| 20260502225024 | 80 | 288 | 0.0 | 4.0 | 0.00 | 0.00 | 0.00 | 100 | 1009.0 |
| 20260502224820 | 80 | 288 | 0.0 | 4.0 | 0.00 | 0.00 | 0.00 | 100 | 1009.0 |
| 20260502224320 | 80 | 329 | 0.0 | 3.0 | 0.00 | 0.00 | 0.00 | 100 | 1009.0 |
| 20260502223820 | 80 | 347 | 0.0 | 0.0 | 0.00 | 0.00 | 0.00 | 100 | 1009.0 |
| 20260502223320 | 80 | 347 | 0.0 | 0.0 | 0.00 | 0.00 | 0.00 | 100 | 1009.0 |
| 20260502222820 | 80 | 306 | 0.0 | 3.0 | 0.00 | 0.00 | 0.00 | 100 | 1009.1 |
| 20260502222320 | 80 | 323 | 0.0 | 5.0 | 0.00 | 0.00 | 0.00 | 100 | 1008.7 |
| 20260502221820 | 80 | 307 | 0.0 | 4.0 | 0.00 | 0.00 | 0.00 | 100 | 1008.6 |
| 20260502221320 | 80 | 355 | 0.0 | 2.0 | 0.00 | 0.00 | 0.00 | 100 | 1008.5 |
| 20260502220820 | 80 | 317 | 0.0 | 5.0 | 0.00 | 0.00 | 0.00 | 100 | 1008.5 |
| 20260502220320 | 80 | 255 | 0.0 | 3.0 | 0.00 | 0.00 | 0.00 | 100 | 1008.5 |
| 20260502215820 | 80 | 338 | 0.0 | 4.0 | 0.00 | 0.00 | 0.00 | 100 | 1008.5 |
| 20260502215321 | 80 | 9 | 0.0 | 3.0 | 0.00 | 0.00 | 0.00 | 100 | 1008.4 |
| 20260502214820 | 80 | 11 | 0.0 | 0.0 | 0.00 | 0.00 | 0.00 | 100 | 1008.9 |
| 20260502214321 | 80 | 11 | 0.0 | 8.0 | 0.00 | 0.00 | 0.00 | 100 | 1009.1 |
| 20260502213820 | 80 | 309 | 3.0 | 5.0 | 0.00 | 0.00 | 0.00 | 100 | 1009.0 |
| 20260502213321 | 80 | 209 | 3.0 | 6.0 | 0.00 | 0.00 | 0.00 | 100 | 1008.4 |
| 20260502212821 | 80 | 234 | 0.0 | 8.0 | 0.00 | 0.00 | 0.00 | 100 | 1007.5 |
| 20260502212321 | 80 | 171 | 0.0 | 2.0 | 0.00 | 0.00 | 0.00 | 100 | 1008.5 |
| 20260502211821 | 80 | 303 | 0.0 | 5.0 | 0.00 | 0.00 | 0.00 | 100 | 1008.7 |
| 20260502211321 | 80 | 291 | 3.0 | 4.0 | 0.00 | 0.00 | 0.00 | 100 | 1008.9 |
| 20260502210821 | 79 | 341 | 2.0 | 2.0 | 0.00 | 0.00 | 0.00 | 100 | 1008.5 |
| 20260502210321 | 79 | 240 | 0.0 | 2.0 | 0.00 | 0.00 | 0.00 | 100 | 1008.0 |
| 20260502205821 | 79 | 229 | 0.0 | 0.0 | 0.00 | 0.00 | 0.00 | 100 | 1007.9 |
| 20260502205321 | 79 | 229 | 0.0 | 0.0 | 0.00 | 0.00 | 0.00 | 100 | 1007.3 |
| 20260502204821 | 79 | 229 | 0.0 | 2.0 | 0.00 | 0.00 | 0.00 | 100 | 1007.4 |
| 20260502204321 | 79 | 12 | 0.0 | 7.0 | 0.00 | 0.00 | 0.00 | 100 | 1007.8 |
| 20260502203821 | 79 | 358 | 4.0 | 8.0 | 0.00 | 0.00 | 0.00 | 100 | 1007.9 |
| 20260502203321 | 79 | 295 | 1.0 | 5.0 | 0.00 | 0.00 | 0.00 | 100 | 1008.3 |
| 20260502202821 | 79 | 7 | 0.0 | 8.0 | 0.00 | 0.00 | 0.00 | 100 | 1008.7 |
| 20260502202321 | 79 | 331 | 0.0 | 7.0 | 0.00 | 0.00 | 0.00 | 100 | 1008.6 |
| 20260502201821 | 79 | 286 | 3.0 | 9.0 | 0.00 | 0.00 | 0.00 | 100 | 1008.5 |
| 20260502201321 | 79 | 354 | 0.0 | 5.0 | 0.00 | 0.00 | 0.00 | 100 | 1008.8 |
| 20260502200821 | 79 | 215 | 0.0 | 3.0 | 0.00 | 0.00 | 0.00 | 100 | 1008.7 |
| 20260502200321 | 79 | 149 | 0.0 | 2.0 | 0.00 | 0.00 | 0.00 | 100 | 1008.8 |
| 20260502195821 | 79 | 195 | 0.0 | 1.0 | 0.00 | 0.00 | 0.00 | 100 | 1008.8 |
| 20260502195321 | 79 | 251 | 0.0 | 1.0 | 0.00 | 0.00 | 0.00 | 100 | 1008.4 |
| 20260502194821 | 79 | 153 | 0.0 | 4.0 | 0.00 | 0.00 | 0.00 | 100 | 1007.5 |
| 20260502194321 | 79 | 191 | 2.0 | 3.0 | 0.00 | 0.00 | 0.00 | 100 | 1007.3 |
| 20260502193821 | 79 | 163 | 0.0 | 6.0 | 0.00 | 0.00 | 0.00 | 100 | 1008.1 |
| 20260502193321 | 79 | 234 | 1.0 | 3.0 | 0.00 | 0.00 | 0.00 | 100 | 1007.6 |
| 20260502192821 | 79 | 157 | 0.0 | 4.0 | 0.00 | 0.00 | 0.00 | 100 | 1007.5 |
| 20260502192321 | 79 | 244 | 4.0 | 5.0 | 0.00 | 0.00 | 0.00 | 100 | 1008.7 |
| 20260502191821 | 78 | 213 | 0.0 | 4.0 | 0.00 | 0.00 | 0.00 | 100 | 1008.6 |
| 20260502191321 | 78 | 272 | 3.0 | 6.0 | 0.00 | 0.00 | 0.00 | 100 | 1008.7 |
| 20260502190821 | 78 | 268 | 0.0 | 5.0 | 0.00 | 0.00 | 0.00 | 100 | 1008.8 |
| 20260502190321 | 78 | 317 | 1.0 | 9.0 | 0.00 | 0.00 | 0.00 | 100 | 1009.2 |
| 20260502185821 | 79 | 324 | 2.0 | 7.0 | 0.00 | 0.00 | 0.00 | 100 | 1007.5 |
| 20260502185321 | 79 | 21 | 0.0 | 5.0 | 0.00 | 0.00 | 0.00 | 100 | 1009.8 |
| 20260502184821 | 79 | 251 | 0.0 | 7.0 | 0.00 | 0.00 | 0.00 | 100 | 1010.7 |
| 20260502184321 | 79 | 174 | 1.0 | 19.0 | 0.00 | 0.00 | 0.00 | 100 | 1009.4 |
| 20260502183821 | 80 | 213 | 3.0 | 25.0 | 0.00 | 0.00 | 0.00 | 100 | 1010.9 |
| 20260502183321 | 84 | 14 | 5.0 | 19.0 | 0.00 | 0.00 | 0.00 | 100 | 1010.5 |
| 20260502182821 | 85 | 347 | 0.0 | 5.0 | 0.00 | 0.00 | 0.00 | 100 | 1009.5 |
| 20260502182321 | 85 | 299 | 2.0 | 7.0 | 0.00 | 0.00 | 0.00 | 100 | 1009.0 |
| 20260502181821 | 86 | 202 | 3.0 | 9.0 | 0.00 | 0.00 | 0.00 | 100 | 1009.4 |
| 20260502181321 | 86 | 171 | 1.0 | 8.0 | 0.00 | 0.00 | 0.00 | 100 | 1009.3 |
| 20260502180821 | 86 | 165 | 2.0 | 11.0 | 0.00 | 0.00 | 0.00 | 100 | 1009.6 |
| 20260502180321 | 86 | 225 | 1.0 | 7.0 | 0.00 | 0.00 | 0.00 | 100 | 1009.5 |
| 20260502170321 | 87 | 202 | 9.0 | 12.0 | 0.00 | 0.00 | 0.00 | 100 | 1008.4 |
| 20260502164321 | 87 | 260 | 6.0 | 16.0 | 0.00 | 0.00 | 0.00 | 100 | 1009.6 |
| 20260502163821 | 87 | 167 | 3.0 | 11.0 | 0.00 | 0.00 | 0.00 | 100 | 1009.6 |
| 20260502163321 | 87 | 295 | 3.0 | 10.0 | 0.00 | 0.00 | 0.00 | 100 | 1009.3 |
| 20260502162821 | 87 | 202 | 2.0 | 12.0 | 0.00 | 0.00 | 0.00 | 100 | 1009.4 |
| 20260502162321 | 87 | 282 | 2.0 | 11.0 | 0.00 | 0.00 | 0.00 | 100 | 1009.4 |
| 20260502161821 | 87 | 262 | 1.0 | 10.0 | 0.00 | 0.00 | 0.00 | 100 | 1009.5 |
| 20260502161358 | 88 | 163 | 4.0 | 8.0 | 0.00 | 0.00 | 0.00 | 100 | 1009.5 |
| 20260502161321 | 88 | 163 | 4.0 | 8.0 | 0.00 | 0.00 | 0.00 | 100 | 1009.5 |
| 20260502160821 | 87 | 199 | 4.0 | 11.0 | 0.00 | 0.00 | 0.00 | 100 | 1009.2 |
| 20260502160321 | 88 | 267 | 7.0 | 13.0 | 0.00 | 0.00 | 0.00 | 100 | 1009.6 |
| 20260502152321 | 89 | 223 | 6.0 | 8.0 | 0.00 | 0.00 | 0.00 | 100 | 1009.6 |
| 20260502151821 | 88 | 189 | 3.0 | 11.0 | 0.00 | 0.00 | 0.00 | 100 | 1009.7 |
| 20260502151321 | 88 | 268 | 5.0 | 11.0 | 0.00 | 0.00 | 0.00 | 100 | 1009.7 |
| 20260502150821 | 89 | 288 | 5.0 | 13.0 | 0.00 | 0.00 | 0.00 | 100 | 1009.7 |
| 20260502150321 | 89 | 178 | 2.0 | 11.0 | 0.00 | 0.00 | 0.00 | 100 | 1009.5 |
| 20260502130321 | 85 | 220 | 3.0 | 13.0 | 0.00 | 0.00 | 0.00 | 100 | 1008.5 |
| 20260502123321 | 83 | 194 | 2.0 | 10.0 | 0.00 | 0.00 | 0.00 | 100 | 1008.2 |
| 20260502122821 | 83 | 209 | 2.0 | 8.0 | 0.00 | 0.00 | 0.00 | 100 | 1008.1 |
| 20260502122321 | 83 | 213 | 3.0 | 10.0 | 0.00 | 0.00 | 0.00 | 100 | 1008.2 |
| 20260502121821 | 83 | 201 | 0.0 | 6.0 | 0.00 | 0.00 | 0.00 | 100 | 1008.1 |
| 20260502121321 | 83 | 240 | 0.0 | 5.0 | 0.00 | 0.00 | 0.00 | 100 | 1008.1 |
| 20260502120821 | 82 | 172 | 2.0 | 6.0 | 0.00 | 0.00 | 0.00 | 100 | 1008.2 |
| 20260502120321 | 82 | 192 | 0.0 | 6.0 | 0.00 | 0.00 | 0.00 | 100 | 1008.0 |
| 20260502115821 | 82 | 284 | 2.0 | 6.0 | 0.00 | 0.00 | 0.00 | 100 | 1008.0 |
| 20260502115321 | 82 | 220 | 1.0 | 6.0 | 0.00 | 0.00 | 0.00 | 100 | 1007.8 |
| 20260502114821 | 82 | 198 | 1.0 | 5.0 | 0.00 | 0.00 | 0.00 | 100 | 1007.8 |
| 20260502114321 | 81 | 223 | 3.0 | 7.0 | 0.00 | 0.00 | 0.00 | 100 | 1007.8 |
| 20260502113821 | 81 | 257 | 2.0 | 6.0 | 0.00 | 0.00 | 0.00 | 100 | 1007.8 |
| 20260502113321 | 81 | 260 | 1.0 | 6.0 | 0.00 | 0.00 | 0.00 | 100 | 1007.7 |
| 20260502112821 | 80 | 195 | 0.0 | 3.0 | 0.00 | 0.00 | 0.00 | 100 | 1007.6 |
| 20260502112321 | 80 | 189 | 0.0 | 6.0 | 0.00 | 0.00 | 0.00 | 100 | 1007.7 |
| 20260502111821 | 80 | 226 | 1.0 | 2.0 | 0.00 | 0.00 | 0.00 | 100 | 1007.8 |
| 20260502111321 | 80 | 198 | 0.0 | 3.0 | 0.00 | 0.00 | 0.00 | 100 | 1007.9 |
| 20260502110821 | 80 | 232 | 0.0 | 4.0 | 0.00 | 0.00 | 0.00 | 100 | 1007.8 |
| 20260502110321 | 80 | 198 | 0.0 | 2.0 | 0.00 | 0.00 | 0.00 | 100 | 1007.7 |
| 20260502105821 | 80 | 174 | 0.0 | 0.0 | 0.00 | 0.00 | 0.00 | 100 | 1007.7 |
| 20260502105321 | 80 | 174 | 0.0 | 0.0 | 0.00 | 0.00 | 0.00 | 100 | 1007.7 |
| 20260502104822 | 80 | 174 | 0.0 | 0.0 | 0.00 | 0.00 | 0.00 | 100 | 1007.7 |
| 20260502104322 | 80 | 174 | 0.0 | 2.0 | 0.00 | 0.00 | 0.00 | 100 | 1007.7 |
| 20260502103821 | 80 | 184 | 1.0 | 4.0 | 0.00 | 0.00 | 0.00 | 100 | 1007.7 |
| 20260502103321 | 80 | 191 | 0.0 | 1.0 | 0.00 | 0.00 | 0.00 | 100 | 1007.6 |
| 20260502102821 | 80 | 210 | 0.0 | 0.0 | 0.00 | 0.00 | 0.00 | 100 | 1007.6 |
| 20260502102322 | 80 | 210 | 0.0 | 0.0 | 0.00 | 0.00 | 0.00 | 100 | 1007.5 |
| 20260502101822 | 80 | 210 | 0.0 | 0.0 | 0.00 | 0.00 | 0.00 | 100 | 1007.5 |
| 20260502101321 | 80 | 210 | 0.0 | 0.0 | 0.00 | 0.00 | 0.00 | 100 | 1007.6 |
| 20260502100822 | 80 | 210 | 0.0 | 0.0 | 0.00 | 0.00 | 0.00 | 100 | 1007.6 |
| 20260502100322 | 80 | 210 | 0.0 | 0.0 | 0.00 | 0.00 | 0.00 | 100 | 1007.6 |
| 20260502091322 | 81 | 188 | 0.0 | 0.0 | 0.00 | 0.00 | 0.00 | 100 | 1007.8 |
| 20260502090822 | 81 | 188 | 0.0 | 0.0 | 0.00 | 0.00 | 0.00 | 100 | 1007.9 |
| 20260502090322 | 81 | 188 | 0.0 | 0.0 | 0.00 | 0.00 | 0.00 | 100 | 1008.0 |
| 20260502071322 | 82 | 188 | 0.0 | 0.0 | 0.00 | 0.00 | 0.00 | 100 | 1008.6 |
| 20260502070822 | 82 | 188 | 0.0 | 0.0 | 0.00 | 0.00 | 0.00 | 100 | 1008.7 |
| 20260502070322 | 82 | 188 | 0.0 | 2.0 | 0.00 | 0.00 | 0.00 | 100 | 1008.7 |
| 20260502065822 | 82 | 262 | 1.0 | 5.0 | 0.00 | 0.00 | 0.00 | 100 | 1008.9 |
| 20260502065322 | 82 | 215 | 0.0 | 0.0 | 0.00 | 0.00 | 0.00 | 100 | 1009.0 |
| 20260502064822 | 82 | 215 | 0.0 | 4.0 | 0.00 | 0.00 | 0.00 | 100 | 1008.8 |
| 20260502064322 | 82 | 244 | 0.0 | 5.0 | 0.00 | 0.00 | 0.00 | 100 | 1008.9 |
| 20260502063822 | 82 | 199 | 0.0 | 0.0 | 0.00 | 0.00 | 0.00 | 100 | 1009.0 |
| 20260502063322 | 82 | 199 | 0.0 | 4.0 | 0.00 | 0.00 | 0.00 | 100 | 1009.0 |
| 20260502062822 | 82 | 239 | 1.0 | 4.0 | 0.00 | 0.00 | 0.00 | 100 | 1009.2 |
| 20260502062322 | 82 | 168 | 1.0 | 2.0 | 0.00 | 0.00 | 0.00 | 100 | 1009.2 |
| 20260502061822 | 81 | 247 | 0.0 | 2.0 | 0.00 | 0.00 | 0.00 | 100 | 1009.3 |
| 20260502061551 | 81 | 198 | 0.0 | 0.0 | 0.00 | 0.00 | 0.00 | 100 | 1009.3 |
| 20260502061322 | 81 | 216 | 0.0 | 1.0 | 0.00 | 0.00 | 0.00 | 100 | 1009.3 |
| 20260502060822 | 81 | 198 | 0.0 | 0.0 | 0.00 | 0.00 | 0.00 | 100 | 1009.3 |
| 20260502060322 | 81 | 198 | 0.0 | 0.0 | 0.00 | 0.00 | 0.00 | 100 | 1009.3 |
| 20260502055822 | 81 | 198 | 0.0 | 0.0 | 0.00 | 0.00 | 0.00 | 100 | 1009.4 |
| 20260502055322 | 82 | 198 | 0.0 | 0.0 | 0.00 | 0.00 | 0.00 | 100 | 1009.5 |
| 20260502054822 | 82 | 198 | 0.0 | 0.0 | 0.00 | 0.00 | 0.00 | 100 | 1009.5 |
| 20260502054322 | 82 | 198 | 0.0 | 0.0 | 0.00 | 0.00 | 0.00 | 100 | 1009.6 |
| 20260502053822 | 82 | 198 | 0.0 | 2.0 | 0.00 | 0.00 | 0.00 | 100 | 1009.5 |
| 20260502053322 | 82 | 213 | 1.0 | 1.0 | 0.00 | 0.00 | 0.00 | 100 | 1009.6 |
| 20260502052822 | 82 | 236 | 0.0 | 1.0 | 0.00 | 0.00 | 0.00 | 100 | 1009.7 |
| 20260502052322 | 82 | 220 | 0.0 | 2.0 | 0.00 | 0.00 | 0.00 | 100 | 1009.8 |
| 20260502051822 | 82 | 264 | 0.0 | 2.0 | 0.00 | 0.00 | 0.00 | 100 | 1009.8 |
| 20260502051322 | 82 | 261 | 0.0 | 0.0 | 0.00 | 0.00 | 0.00 | 100 | 1009.8 |
| 20260502050822 | 82 | 261 | 0.0 | 0.0 | 0.00 | 0.00 | 0.00 | 100 | 1009.8 |
| 20260502050322 | 82 | 261 | 0.0 | 0.0 | 0.00 | 0.00 | 0.00 | 100 | 1009.8 |
| 20260502045854 | 82 | 261 | 0.0 | 0.0 | 0.00 | 0.00 | 0.00 | 100 | 1009.8 |
| 20260502045822 | 82 | 261 | 0.0 | 0.0 | 0.00 | 0.00 | 0.00 | 100 | 1009.8 |
| 20260502045322 | 82 | 261 | 0.0 | 0.0 | 0.00 | 0.00 | 0.00 | 100 | 1009.9 |
| 20260502044822 | 82 | 261 | 0.0 | 0.0 | 0.00 | 0.00 | 0.00 | 100 | 1010.0 |
| 20260502044322 | 82 | 261 | 0.0 | 0.0 | 0.00 | 0.00 | 0.00 | 100 | 1009.9 |
| 20260502043822 | 82 | 261 | 0.0 | 1.0 | 0.00 | 0.00 | 0.00 | 100 | 1009.9 |
| 20260502043322 | 82 | 272 | 0.0 | 0.0 | 0.00 | 0.00 | 0.00 | 100 | 1009.9 |
| 20260502042822 | 82 | 244 | 0.0 | 0.0 | 0.00 | 0.00 | 0.00 | 100 | 1010.0 |
| 20260502042322 | 82 | 244 | 0.0 | 0.0 | 0.00 | 0.00 | 0.00 | 100 | 1009.9 |
| 20260502041822 | 82 | 244 | 0.0 | 0.0 | 0.00 | 0.00 | 0.00 | 100 | 1009.9 |
| 20260502041409 | 82 | 244 | 0.0 | 0.0 | 0.00 | 0.00 | 0.00 | 100 | 1009.7 |
| 20260502041322 | 82 | 244 | 0.0 | 0.0 | 0.00 | 0.00 | 0.00 | 100 | 1009.7 |
| 20260502040822 | 82 | 244 | 0.0 | 2.0 | 0.00 | 0.00 | 0.00 | 100 | 1009.7 |
| 20260502040322 | 82 | 1 | 0.0 | 0.0 | 0.00 | 0.00 | 0.00 | 100 | 1009.8 |
| 20260502035822 | 82 | 1 | 0.0 | 0.0 | 0.00 | 0.00 | 0.00 | 100 | 1009.7 |
| 20260502035322 | 82 | 1 | 0.0 | 0.0 | 0.00 | 0.00 | 0.00 | 100 | 1009.7 |
| 20260502034822 | 82 | 1 | 0.0 | 0.0 | 0.00 | 0.00 | 0.00 | 100 | 1009.7 |
| 20260502034322 | 82 | 1 | 0.0 | 0.0 | 0.00 | 0.00 | 0.00 | 100 | 1009.7 |
| 20260502033822 | 82 | 1 | 0.0 | 0.0 | 0.00 | 0.00 | 0.00 | 100 | 1009.8 |
| 20260502033322 | 82 | 1 | 0.0 | 0.0 | 0.00 | 0.00 | 0.00 | 100 | 1009.7 |
| 20260502032822 | 82 | 1 | 0.0 | 0.0 | 0.00 | 0.00 | 0.00 | 100 | 1009.7 |
| 20260502032322 | 82 | 1 | 0.0 | 0.0 | 0.00 | 0.00 | 0.00 | 100 | 1009.8 |
| 20260502031822 | 82 | 1 | 0.0 | 0.0 | 0.00 | 0.00 | 0.00 | 100 | 1009.7 |
| 20260502031322 | 82 | 1 | 0.0 | 0.0 | 0.00 | 0.00 | 0.00 | 100 | 1009.7 |
| 20260502031233 | 82 | 1 | 0.0 | 0.0 | 0.00 | 0.00 | 0.00 | 100 | 1009.8 |
| 20260502031143 | 82 | 1 | 0.0 | 0.0 | 0.00 | 0.00 | 0.00 | 100 | 1009.8 |
| 20260502030822 | 82 | 1 | 0.0 | 0.0 | 0.00 | 0.00 | 0.00 | 100 | 1009.8 |
| 20260502030322 | 82 | 1 | 0.0 | 0.0 | 0.00 | 0.00 | 0.00 | 100 | 1009.8 |
| 20260502025953 | 82 | 1 | 0.0 | 0.0 | 0.00 | 0.00 | 0.00 | 100 | 1009.8 |
| 20260502025822 | 82 | 1 | 0.0 | 0.0 | 0.00 | 0.00 | 0.00 | 100 | 1009.8 |
| 20260502025322 | 82 | 1 | 0.0 | 0.0 | 0.00 | 0.00 | 0.00 | 100 | 1009.8 |
| 20260502024822 | 82 | 1 | 0.0 | 0.0 | 0.00 | 0.00 | 0.00 | 100 | 1009.8 |
| 20260502024322 | 82 | 1 | 0.0 | 0.0 | 0.00 | 0.00 | 0.00 | 100 | 1009.8 |
| 20260502023822 | 82 | 1 | 0.0 | 0.0 | 0.00 | 0.00 | 0.00 | 100 | 1009.7 |
| 20260502023322 | 82 | 1 | 0.0 | 0.0 | 0.00 | 0.00 | 0.00 | 100 | 1009.7 |
| 20260502022822 | 82 | 1 | 0.0 | 0.0 | 0.00 | 0.00 | 0.00 | 100 | 1009.6 |
| 20260502022322 | 82 | 1 | 0.0 | 0.0 | 0.00 | 0.00 | 0.00 | 100 | 1009.6 |
| 20260502021822 | 82 | 1 | 0.0 | 0.0 | 0.00 | 0.00 | 0.00 | 100 | 1009.5 |
| 20260502021322 | 82 | 1 | 0.0 | 0.0 | 0.00 | 0.00 | 0.00 | 100 | 1009.5 |
| 20260502020822 | 82 | 1 | 0.0 | 0.0 | 0.00 | 0.00 | 0.00 | 100 | 1009.6 |
| 20260502020322 | 82 | 1 | 0.0 | 0.0 | 0.00 | 0.00 | 0.00 | 100 | 1009.6 |
| 20260502015822 | 83 | 1 | 0.0 | 0.0 | 0.00 | 0.00 | 0.00 | 100 | 1009.6 |
| 20260502015322 | 83 | 1 | 0.0 | 0.0 | 0.00 | 0.00 | 0.00 | 100 | 1009.6 |
| 20260502014939 | 83 | 1 | 0.0 | 0.0 | 0.00 | 0.00 | 0.00 | 100 | 1009.5 |
| 20260502014822 | 83 | 1 | 0.0 | 0.0 | 0.00 | 0.00 | 0.00 | 100 | 1009.6 |
| 20260502014322 | 83 | 1 | 0.0 | 0.0 | 0.00 | 0.00 | 0.00 | 100 | 1009.5 |
| 20260502013822 | 83 | 1 | 0.0 | 0.0 | 0.00 | 0.00 | 0.00 | 100 | 1009.6 |
| 20260502013322 | 83 | 1 | 0.0 | 0.0 | 0.00 | 0.00 | 0.00 | 100 | 1009.6 |
| 20260502012822 | 83 | 1 | 0.0 | 0.0 | 0.00 | 0.00 | 0.00 | 100 | 1009.5 |
| 20260502012322 | 83 | 1 | 0.0 | 0.0 | 0.00 | 0.00 | 0.00 | 100 | 1009.6 |
| 20260502011822 | 83 | 1 | 0.0 | 0.0 | 0.00 | 0.00 | 0.00 | 100 | 1009.7 |
| 20260502011322 | 83 | 1 | 0.0 | 0.0 | 0.00 | 0.00 | 0.00 | 100 | 1009.7 |
| 20260502010822 | 84 | 1 | 0.0 | 0.0 | 0.00 | 0.00 | 0.00 | 100 | 1009.7 |
| 20260502010322 | 84 | 1 | 0.0 | 0.0 | 0.00 | 0.00 | 0.00 | 100 | 1007.5 |
| 20260502005822 | 84 | 1 | 0.0 | 2.0 | 0.00 | 0.00 | 0.00 | 100 | 1007.5 |
| 20260502005712 | 84 | 1 | 2.0 | 2.0 | 0.00 | 0.00 | 0.00 | 100 | 1007.8 |
| 20260502005322 | 84 | 1 | 2.0 | 2.0 | 0.00 | 0.00 | 0.00 | 100 | 1007.8 |
| 20260502004822 | 84 | 330 | 0.0 | 0.0 | 0.00 | 0.00 | 0.00 | 100 | 1007.8 |
| 20260502004322 | 84 | 330 | 0.0 | 2.0 | 0.00 | 0.00 | 0.00 | 100 | 1008.1 |
| 20260502003824 | 84 | 319 | 0.0 | 0.0 | 0.00 | 0.00 | 0.00 | 100 | 1007.7 |
| 20260502003322 | 84 | 319 | 0.0 | 0.0 | 0.00 | 0.00 | 0.00 | 100 | 1008.0 |
| 20260502002822 | 84 | 319 | 0.0 | 2.0 | 0.00 | 0.00 | 0.00 | 100 | 1008.8 |